Cloud_Cover
24 13 12 0 2 4 4 63 100 100 100 100 100 100 100 55 12 5 20 22 50 44 78 15 2 0 5 0 0 0 0 0 0 0 0 0 0 0 0 21 64 97 100 26 5 5 44
0 4 11 10 4 82 100 100 100 100 100 100 100 100 100 91 87 65 30 64 100 45 18 14 0 0 0 0 0 0 0 0 0 0 0 0 0 0 0 0 40 81 82 65 17 28 41
19 31 61 99 100 100 100 100 100 100 100 100 100 100 100 100 100 100 100 100 32 97 99 24 0 0 0 0 0 0 0 0 0 0 0 0 0 0 0 0 1 25 84 2 4 0 84
9 52 100 100 100 100 100 100 100 100 100 100 100 100 100 100 100 100 100 63 0 39 39 24 2 0 0 0 0 0 0 0 0 0 0 0 0 0 0 0 0 0 1 79 26 0 5
98 100 100 100 100 100 100 100 100 91 80 36 7 13 100 100 100 100 92 0 22 1 0 0 3 0 0 0 0 0 0 0 0 0 0 0 0 0 0 0 0 0 5 43 76 1 18
7 85 96 100 100 93 47 16 11 0 0 0 24 30 100 100 100 100 9 3 14 44 0 0 0 0 0 0 0 0 0 0 0 0 0 0 0 0 0 0 0 0 3 60 100 3 5
14 9 100 100 100 97 19 0 0 0 6 72 100 100 72 100 100 68 25 5 2 4 0 0 0 0 0 0 0 0 0 0 0 0 0 0 0 0 0 0 0 4 2 100 100 16 39
85 61 100 100 93 0 0 0 0 7 98 100 100 100 100 100 96 61 16 5 5 4 2 0 0 0 0 0 0 0 0 0 0 0 0 0 0 0 0 0 0 0 5 55 59 52 62
0 94 57 96 38 0 0 0 0 68 100 100 100 100 100 88 6 35 5 59 39 86 26 0 0 0 0 0 0 0 0 0 0 0 0 0 0 0 0 0 0 0 5 74 70 0 2
0 4 10 41 0 0 0 0 4 100 99 100 100 99 18 0 52 0 0 1 10 5 5 2 0 0 0 0 0 0 0 0 0 0 0 0 0 0 0 0 4 4 1 67 59 7 5
5 0 1 60 0 0 0 0 21 100 100 100 100 92 0 82 0 0 0 0 0 0 14 3 3 2 0 0 0 0 0 0 0 0 0 0 0 0 0 0 2 5 0 7 99 4 7
0 0 8 6 0 0 0 0 71 100 100 100 79 97 29 0 0 0 0 0 0 0 74 12 5 5 5 5 1 1 0 0 0 0 1 0 0 0 0 0 1 24 74 5 5 5 3
1 1 4 1 0 0 0 4 78 100 100 36 0 0 40 0 0 0 0 0 1 71 81 10 4 5 5 94 5 3 0 0 0 4 1 0 4 0 0 0 3 31 53 5 5 5 2
4 0 0 2 0 0 0 7 22 49 5 0 0 39 0 0 0 0 0 9 100 71 82 2 0 5 5 20 90 9 5 0 2 19 85 0 0 0 0 3 57 5 6 1 3 2 4
0 4 2 3 0 0 2 3 5 2 5 1 38 0 0 0 5 3 20 100 94 2 1 0 0 98 100 100 100 100 93 77 99 13 51 100 78 6 4 26 92 21 5 4 100 66 52
5 5 18 73 29 8 9 5 6 5 5 0 0 5 2 2 5 7 85 43 1 0 0 16 69 100 100 100 91 100 100 100 92 6 4 94 100 0 0 4 45 65 61 12 88 98 100
5 53 94 92 98 48 65 16 8 32 5 14 0 48 0 2 77 78 98 19 4 26 36 83 97 98 12 100 100 100 100 7 92 100 63 88 100 47 2 0 0 1 4 5 99 45 100
59 98 82 100 100 100 100 84 100 48 36 70 0 97 4 0 41 100 88 2 4 99 100 100 93 98 95 77 93 71 100 10 7 83 100 92 90 82 1 4 0 0 4 4 5 3 42
52 100 100 100 80 100 100 100 100 100 99 2 0 0 0 0 100 6 97 44 2 22 4 75 88 100 100 100 100 96 94 5 73 5 22 70 100 100 18 1 0 0 0 1 5 73 71
100 100 100 100 100 100 100 100 100 100 100 13 5 4 0 0 0 1 10 100 49 5 20 4 34 100 75 100 100 100 100 68 98 91 5 87 88 96 100 98 37 4 0 0 4 6 29
100 100 100 100 100 100 100 100 100 100 100 63 5 0 0 0 0 0 4 1 100 19 89 11 62 20 66 100 100 93 100 100 98 100 83 44 53 88 54 5 21 88 4 0 0 0 100
100 100 100 100 100 100 100 100 100 100 100 97 16 2 0 0 0 0 0 0 4 53 33 71 54 99 78 63 93 100 62 84 100 99 100 19 100 100 79 10 89 73 1 0 0 2 4
100 100 100 100 100 100 100 100 100 100 100 100 25 2 0 0 0 0 0 0 0 0 5 5 33 90 100 100 100 62 5 5 7 99 100 90 67 94 100 100 100 86 100 78 0 0 58
100 100 100 100 100 100 100 100 100 100 100 100 100 0 0 0 0 0 0 0 0 0 3 5 5 5 26 99 100 100 100 97 57 6 100 100 100 61 100 100 100 100 100 100 100 51 3
100 100 100 100 100 100 100 100 100 100 100 100 99 1 0 0 0 0 0 0 0 0 0 0 0 4 5 5 73 100 100 100 100 100 17 5 16 74 11 100 100 100 100 100 100 62 100
100 100 100 100 100 100 100 100 100 100 100 100 80 26 1 1 1 0 0 0 1 0 0 0 0 0 0 30 23 90 100 100 100 100 100 84 7 5 5 24 99 69 100 100 100 100 100
100 100 100 100 100 100 100 100 100 100 100 100 31 90 1 5 0 0 5 5 1 0 2 0 0 1 1 5 43 87 91 8 83 100 100 100 99 34 5 5 11 4 0 70 100 100 100
100 100 100 100 100 100 100 100 100 100 100 100 5 100 2 3 2 0 0 2 5 38 9 4 1 2 1 3 5 10 5 5 5 6 42 100 100 100 69 59 66 39 0 0 3 68 96
100 100 100 100 100 100 100 100 100 100 100 100 52 100 2 0 30 0 0 5 5 5 45 26 5 5 5 4 1 5 5 5 5 5 2 5 63 95 94 100 25 10 5 4 4 4 0